Regional Weather Roundup
Issued by NWS

Home | Current Version | Previous Version | Text Only | Print | Product List | Glossary Off
Versions: 1 2 3 4 5 6 7 8 9 10 11 12 13 14 15 16 17 18 19 20 21 22 23 24 25 26 27 28 29 30 31 32 33 34 35 36 37 38 39 40 41 42 43 44 45 46 47 48 49 50

021
ASUS43 KFSD 280810
RWRSD

WEATHER ROUNDUP FOR SOUTH DAKOTA
NATIONAL WEATHER SERVICE SIOUX FALLS SD
300 AM CDT FRI JUL 28 2017

NOTE: "FAIR" INDICATES FEW OR NO CLOUDS BELOW 12,000 FEET WITH NO
SIGNIFICANT WEATHER AND/OR OBSTRUCTIONS TO VISIBILITY.


SDZ001>005-009-010-012>017-280900-
NORTHWEST AND NORTH CENTRAL SOUTH DAKOTA

CITY           SKY/WX    TMP DP  RH WIND       PRES   REMARKS
BUFFALO          N/A     60  56  86 E10       29.97S
FAITH            N/A     66  60  81 SE8       30.05S
MOBRIDGE       CLOUDY    71  63  75 SE9       30.03S
$$

SDZ012>016-024>037-041>051-057-063-072>074-280900-
SOUTHWEST AND SOUTH CENTRAL SOUTH DAKOTA

CITY           SKY/WX    TMP DP  RH WIND       PRES   REMARKS
RAPID CTY ARPT PTCLDY    62  54  74 SW7       30.07R
PIERRE         PTCLDY    71  59  65 SE8       30.03F
CUSTER         RAIN      57  53  86 SW9G20    30.19R
ELLSWORTH AFB  PTCLDY    61  58  88 SE10      30.05S
PHILIP         CLOUDY    68  62  81 E6        30.05R
PINE RIDGE     CLOUDY    65  61  87 VRB3      30.03S
SPEARFISH      FAIR      66  57  72 N3        30.04S
WINNER         PTSUNNY   72  61  68 SE8       30.05F
$$

SDZ004>011-016>023-039-040-280900-
NORTHEAST SOUTH DAKOTA

CITY           SKY/WX    TMP DP  RH WIND       PRES   REMARKS
ABERDEEN       CLOUDY    66  62  87 SE3       30.07S
WATERTOWN      MOCLDY    67  60  78 CALM      30.09R
BROOKINGS      CLOUDY    65  63  93 CALM      30.09S
SISSETON         N/A     60  58  92 CALM      30.07S
$$

SDZ017-020-022-023-036>040-048>070-280900-
SOUTHEAST SOUTH DAKOTA

CITY           SKY/WX    TMP DP  RH WIND       PRES   REMARKS
SIOUX FALLS    CLEAR     63  61  93 CALM      30.07S
HURON          CLOUDY    67  63  87 E6        30.06R
CHAMBERLAIN    CLOUDY    71  64  80 SE5       30.05S
MITCHELL       CLOUDY    66  63  90 SE5       30.06S
YANKTON        CLOUDY    66  62  87 NE3       30.05F
$$

ABBREVIATIONS USED IN REMARKS
   TC - TEMPERATURE IN CELSIUS
  WCI - WIND CHILL INDEX
   HX - HEAT INDEX
  VSB - VISIBILITY





USA.gov is the U.S. government's official web portal to all federal, state and local government web resources and services.